STARLINK-34258, 64211

Orbit data source: Space-Track

STARLINK-34258, 64211 is a payload satellite owned by SpaceX/Seattle (US) in LEO that was launched on Sat, 31 May 2025 UTC via an FALCON 9 launch vehicle from the Air Force Western Test Range (AFWTR). Payload-class satellites include a variety of spacecraft equipped with specific instruments for various scientific and technological missions. These include communications satellites like Starlink; space stations such as the ISS; scientific satellites like the Hubble; Earth observation satellites from companies like Planet Labs, Umbra, and HawkEye 360; GPS; miniature CubeSats for education and research; and military/defense satellites.

Loading next visibility...
Identifier
64211, 2025-117J
Orbit
LEO
Last TLE update
9 hours ago
Origin
Manufacturer
SpaceX/Seattle
Mission
Operational Commercial Communications
Bus & Motor
STARLINK V2MO, Unknown motor
Mass
575 kg wet, ~530 kg dry
Launch date (UTC)
2025-05-31 (2 months ago)
Launch vehicle
FALCON 9
Launch site
Air Force Western Test Range (AFWTR)
Object type
Payload
Rocket body
Debris
Shape & HBR
Box + 1 Pan, 14.5 m
Radar Cross Section
41.120 m², Large (>1 m²)

Expand to show TLE details & history

TLE from 9 hours ago
0 STARLINK-34258
1 64211U 25117J   25211.36842769 -.00627176  00000-0 -17509-1 0  9990
2 64211  53.1593 353.9505 0017825  95.8105 264.4932 15.38475588  9444
Epoch: 2025-07-30T08:50Z
TLE epoch observation values (Epoch: 2025-07-30T08:50:32.152Z)
Latitude
-0.00002°
Longitude
-86.93214°
Altitude
452.709 km
Speed
7.641 km/s
True Right ascension
23h 35m 48s
True Declination
0° 00' 00"
Sunlit
Object was in full shadow at epoch
Visualization orbit readout
Latitude
-43.82365°
Longitude
-134.3649°
Altitude
478.169 km
Speed
7.62 km/s
Apparent Right ascension
19h 58m 23s
Apparent Declination
-41° 58' 02"
Sunlit
Object is in full shadow
Visualization observer readout
Local Sidereal Time
07:30:23
Azimuth
246.528° WSW
Elevation
-84.331°
Doppler factor
1
Orbital elements
Apogee altitude
463.047 km
Perigee altitude
438.701 km
Semi-major axis
6,829.011 km
Eccentricity
0.00178
Inclination
53.1593°
RAAN
353.9505°
Arg. of periapsis
95.8105°
True anomaly
264.28993°
Mean anomaly
264.4932°
Eccentric anomaly
264.39156°
Mean motion
3.84598 °/min
Orbital period
93.6 mins
BSTAR
-0.017509
Loading maneuver chart data...
Loading SW <> Apogee altitude chart data...
Loading historical data...
Loading historical data...
Loading historical data...
Loading historical data...
Loading historical data...
Loading historical data...
Loading historical data...
|